This demonstration page uses our WeatherBlox Daily Observations layout. Learn more.

Left ArrowRight Arrow

30.21309, -93.2044

Hourly Observations for May 13, 2022

Temp ( °F °C ) Dew Point ( °F °C ) Humidity (%) Winds ( mph kmh ) Pressure ( in mb ) Visibility ( mi km ) Precip ( " mm )
12:15 am 00:15 Clear 76 24.6 69 20.3 77 77 SW 5 7 29.96 1015 10 16 0.00 0.00
12:35 am 00:35 Clear 76 24.5 68 20.2 77 77 SW 5 7 29.95 1014 10 16 0.00 0.00
12:55 am 00:55 Clear 76 24.5 68 20.1 77 77 WSW 7 11 29.95 1014 10 16 0.00 0.00
1:15 am 01:15 Clear 76 24.5 68 20 76 76 SW 6 9 29.94 1014 10 16 0.00 0.00
1:35 am 01:35 Clear 76 24.2 68 19.9 77 77 SW 6 9 29.94 1014 10 16 0.00 0.00
1:55 am 01:55 Clear 75 24.1 68 19.8 77 77 SW 6 9 29.93 1014 10 16 0.00 0.00
2:15 am 02:15 Clear 75 24 68 19.8 77 77 WSW 6 9 29.92 1013 10 16 0.00 0.00
2:35 am 02:35 Clear 75 24 68 19.8 77 77 W 5 7 29.92 1013 10 16 0.00 0.00
2:55 am 02:55 Clear 75 24.1 68 19.9 77 77 W 6 9 29.92 1013 10 16 0.00 0.00
3:15 am 03:15 Clear 76 24.2 68 20 77 77 WSW 9 15 29.92 1013 10 16 0.00 0.00
3:35 am 03:35 Clear 76 24.2 68 20 77 77 W 7 11 29.91 1013 10 16 0.00 0.00
3:55 am 03:55 Clear 75 24 68 20 78 78 WSW 6 9 29.91 1013 10 16 0.00 0.00
4:15 am 04:15 Clear 75 23.8 68 19.9 79 79 WSW 5 7 29.90 1013 10 16 0.00 0.00
4:35 am 04:35 Clear 75 23.7 68 20 80 80 WSW 3 6 29.90 1013 10 16 0.00 0.00
4:55 am 04:55 Clear 75 23.7 68 20.1 80 80 W 5 7 29.90 1013 10 16 0.00 0.00
5:15 am 05:15 Clear 74 23.6 68 20.2 81 81 W 8 13 29.90 1013 10 16 0.00 0.00
5:35 am 05:35 Clear 74 23.4 68 20.2 82 82 W 6 9 29.90 1013 10 16 0.00 0.00
6:00 am 06:00 Mostly Clear 73 23 70 21 89 89 W 8 13 29.90 1013 10 16 0.00 0.00
6:55 am 06:55 Mostly Sunny 70 21 66 19 88 88 Calm 29.93 1014 7 11 0.00 0.00
7:55 am 07:55 Mostly Sunny 73 23 70 21 89 89 Calm 29.96 1015 7 11 0.00 0.00
8:51 am 08:51 Partly Cloudy 77 25 70 21 79 79 VRB 5 7 29.97 1015 7 11 0.00 0.00
9:04 am 09:04 Mostly Cloudy 79 26 70 21 74 74 NW 7 11 29.98 1015 7 11 0.00 0.00
9:49 am 09:49 Mostly Cloudy 81 27 70 21 70 70 WNW 6 9 29.98 1015 10 16 0.00 0.00
10:18 am 10:18 Mostly Sunny 82 28 70 21 66 66 WNW 5 7 29.98 1015 10 16 0.00 0.00
10:50 am 10:50 Mostly Sunny 84 29 70 21 62 62 Calm 29.97 1015 10 16 0.00 0.00
11:50 am 11:50 Mostly Sunny 84 29 68 20 58 58 S 7 11 29.97 1015 10 16 0.00 0.00
12:50 pm 12:50 Mostly Sunny 88 31 68 20 52 52 S 7 11 29.96 1015 10 16 0.00 0.00
1:50 pm 13:50 Partly Cloudy 88 31 68 20 52 52 SSW 12 19 29.94 1014 10 16 0.00 0.00
2:45 pm 14:45 Mostly Sunny 90 32 66 19 46 46 S 13 20 29.92 1013 10 16 0.00 0.00
3:47 pm 15:47 Mostly Sunny 90 32 66 19 46 46 SSW 15 24 29.91 1013 10 16 0.00 0.00
4:45 pm 16:45 Mostly Sunny 90 32 66 19 46 46 SW 15 24 29.90 1012 10 16 0.00 0.00
5:53 pm 17:53 Mostly Sunny 88 31 63 17 43 43 SSW 13 20 29.90 1013 10 16 0.00 0.00
6:45 pm 18:45 Mostly Sunny 84 29 63 17 48 48 SSW 13 20 29.90 1013 10 16 0.00 0.00
7:55 pm 19:55 Mostly Sunny 79 26 66 19 65 65 S 9 15 29.92 1013 10 16 0.00 0.00
8:55 pm 20:55 Mostly Clear 75 24 66 19 74 74 S 8 13 29.94 1014 10 16 0.00 0.00
9:53 pm 21:53 Mostly Clear 72 22 66 19 83 83 SE 7 11 29.97 1015 10 16 0.00 0.00
10:15 pm 22:15 Clear 73 22.6 68 19.8 84 84 ESE 9 15 29.98 1015 10 16 0.00 0.00
10:35 pm 22:35 Clear 73 22.7 68 20 85 85 ESE 7 11 29.99 1016 10 16 0.00 0.00
10:55 pm 22:55 Clear 72 22.4 68 20 86 86 ESE 8 13 30.00 1016 10 16 0.00 0.00
11:15 pm 23:15 Clear 72 22.1 68 19.9 87 87 E 8 13 30.00 1016 10 16 0.00 0.00
11:35 pm 23:35 Partly Cloudy 72 22.1 68 20 88 88 ESE 5 7 30.00 1016 10 16 0.00 0.00
11:55 pm 23:55 Partly Cloudy 72 22 68 19.9 88 88 SE 10 17 29.99 1016 10 16 0.00 0.00

Powered by AerisWeather